This demonstration page uses our WeatherBlox Daily Observations layout. Learn more.

Left ArrowRight Arrow

Hourly Observations for November 20, 2021

Temp ( °F °C ) Dew Point ( °F °C ) Humidity (%) Winds ( mph kmh ) Pressure ( in mb ) Visibility ( mi km ) Precip ( " mm )
12:56 am 00:56 Clear 33 0.6 22 -5.6 64 64 W 5 7 30.00 1016 10 16 0.00 0.00
1:56 am 01:56 Clear 30 -1.1 22 -5.6 72 72 Calm 29.99 1016 10 16 0.00 0.00
2:56 am 02:56 Clear 32 0 22 -5.6 66 66 SW 7 11 29.98 1015 10 16 0.00 0.00
3:56 am 03:56 Clear 29 -1.7 22 -5.6 75 75 SW 3 6 29.99 1016 10 16 0.00 0.00
4:56 am 04:56 Clear 25 -3.9 21 -6.1 85 85 NE 6 9 30.02 1017 10 16 0.00 0.00
5:56 am 05:56 Clear 29 -1.7 21 -6.1 72 72 Calm 30.02 1017 10 16 0.00 0.00
6:56 am 06:56 Mostly Cloudy 32 0 24 -4.4 73 73 SW 3 6 30.04 1017 10 16 0.00 0.00
7:56 am 07:56 Mostly Sunny 33 0.6 25 -3.9 72 72 WSW 6 9 30.05 1018 10 16 0.00 0.00
8:56 am 08:56 Sunny 40 4.4 26 -3.3 58 58 SSW 5 7 30.05 1018 10 16 0.00 0.00
9:56 am 09:56 Sunny 48 8.9 26 -3.3 42 42 SSW 5 7 30.06 1018 10 16 0.00 0.00
10:56 am 10:56 Sunny 53 11.7 26 -3.3 35 35 S 5 7 30.06 1018 10 16 0.00 0.00
11:56 am 11:56 Sunny 55 12.8 27 -2.8 34 34 ESE 8 13 30.05 1018 10 16 0.00 0.00
12:56 pm 12:56 Sunny 54 12.2 26 -3.3 34 34 ENE 10 17 30.05 1018 10 16 0.00 0.00
1:56 pm 13:56 Sunny 53 11.7 26 -3.3 35 35 NE 10 17 30.05 1018 10 16 0.00 0.00
2:56 pm 14:56 Mostly Sunny 52 11.1 27 -2.8 38 38 ENE 10 17 30.05 1018 10 16 0.00 0.00
3:56 pm 15:56 Mostly Cloudy 53 11.7 26 -3.3 35 35 ENE 9 15 30.08 1019 10 16 0.00 0.00
4:56 pm 16:56 Mostly Cloudy 50 10 28 -2.2 43 43 NNE 7 11 30.12 1020 10 16 0.00 0.00
5:56 pm 17:56 Cloudy 47 8.3 28 -2.2 48 48 ENE 9 15 30.12 1020 10 16 0.00 0.00
6:56 pm 18:56 Mostly Cloudy 47 8.3 25 -3.9 42 42 ESE 14 22 30.10 1019 10 16 0.00 0.00
7:56 pm 19:56 Mostly Clear 44 6.7 25 -3.9 47 47 N 8 13 30.14 1021 10 16 0.00 0.00
8:56 pm 20:56 Mostly Cloudy 42 5.6 25 -3.9 51 51 NNE 12 19 30.17 1022 10 16 0.00 0.00
9:56 pm 21:56 Partly Cloudy 39 3.9 25 -3.9 57 57 N 17 28 30.19 1022 10 16 0.00 0.00
10:56 pm 22:56 Clear 36 2.2 23 -5 59 59 NNW 8 13 30.20 1023 10 16 0.00 0.00
11:56 pm 23:56 Clear 34 1.1 23 -5 64 64 NW 7 11 30.21 1023 10 16 0.00 0.00

Powered by AerisWeather